Location: Marcé
(47.5801°N, 0.3280°W)
Time: 00:09:32
(UTC+01:00)

S-56A Canister/Altair - Pass Details

Date: 05 December 2021
Orbit: 633 x 2499 km, 38.9° (Epoch: 17 January)

Event Time Altitude Azimuth Distance (km) Brightness Sun altitude
Rises 22:59:07 0° 211° (SSW) 5,725 11.9 -56.2°
Enters shadow 22:59:19 - 211° (SSW) 5,673 11.9 -56.3°
Reaches altitude 10° 23:04:06 10° 200° (SSW) 4,440 - -56.9°
Maximum altitude 23:12:34 24° 153° (SSE) 2,866 - -58.0°
Drops below altitude 10° 23:19:02 10° 104° (ESE) 3,298 - -58.7°
Sets 23:22:04 0° 90° (E) 4,000 - -59.1°
